#timestamp,LO_Frequency,Hit 
1504123215.0,286047006.3,N
1504123215.9,286047006.3,N
1504123235.8,286047010.4,P
1504123255.6,286047007.8,N
1504123275.4,286047010.8,P
1504123295.3,286047012.8,P
1504123315.1,286047001.3,N
1504123335.8,286047002.0,N
1504123355.7,286047001.7,N
1504123375.5,286047002.2,N
1504123395.3,286047001.8,N
1504123415.2,286047001.3,N
1504123435.9,286047002.0,N
1504123455.7,286047003.3,N
1504123475.6,286047006.4,N
1504123495.4,286047008.2,N
1504123515.2,286047007.6,N
1504123535.0,286047004.6,N
1504123536.0,286047004.6,N
1504123555.1,286047007.1,N
1504123575.9,286047004.7,N
1504123595.7,286047003.1,N
1504123615.5,286047004.2,N
1504123635.4,286047003.9,N
1504123655.2,286047005.7,N
1504123675.0,286047007.0,N
1504123675.9,286047007.0,N
1504123695.8,286047003.3,N
1504123715.6,286047005.6,N
1504123735.4,286047007.4,N
1504123755.2,286047007.2,N
1504123775.1,286047004.5,N
1504123776.0,286047004.5,N
1504123795.8,286047005.1,N
1504123815.7,286047010.3,P
1504123835.5,286047003.6,N
1504123855.3,286047000.5,N
1504123875.2,286047000.3,N
1504123895.9,286047003.7,N
1504123915.7,286047003.3,N
1504123935.5,286047003.5,N
1504123955.4,286046999.7,N
1504123975.2,286046998.3,N
1504123995.0,286046998.2,N
1504123995.9,286046998.2,N
1504124015.8,286046998.4,N
1504124035.6,286046998.3,N
1504124055.4,286047002.4,N
1504124075.3,286047001.4,N
1504124095.1,286047003.6,N
1504124096.0,286047003.6,N
1504124115.8,286047004.2,N
1504124135.7,286047003.1,N
1504124155.5,286047004.9,N
1504124175.3,286047005.1,N
1504124195.2,286047005.5,N
1504124215.9,286047002.9,N
1504124235.7,286047003.1,N
1504124255.6,286047003.2,N
1504124275.4,286047001.9,N
1504124295.2,286047002.5,N
1504124315.0,286047003.6,N
1504124316.0,286047003.6,N
1504124335.8,286047001.6,N
1504124355.6,286047000.5,N
1504124375.4,286046999.7,N
1504124395.3,286047002.6,N
1504124415.1,286047001.8,N
1504124435.8,286047003.8,N
1504124455.7,286047003.6,N
1504124475.5,286047001.8,N
1504124495.3,286047002.2,N
1504124515.2,286047003.6,N
1504124535.9,286047004.4,N
1504124555.7,286047002.7,N
1504124575.6,286046999.7,N
1504124595.4,286047001.3,N
1504124615.2,286047006.0,P
1504124635.5,286047000.2,N
1504124655.3,286047000.5,N
1504124675.2,286047002.6,N
1504124695.9,286047002.3,N
1504124715.7,286047000.8,N
1504124735.6,286047001.4,N
1504124755.4,286047003.3,N
1504124775.2,286047004.9,N
1504124795.1,286047001.5,N
1504124796.0,286047001.5,N
1504124815.8,286047001.4,N
1504124835.6,286047004.0,N
1504124855.5,286047004.1,N
1504124875.3,286047005.2,P
1504124895.1,286047004.3,P
1504124915.9,286047002.4,N
1504124935.7,286047005.4,P
1504124955.5,286047004.3,P
1504124975.4,286047002.5,P
1504124995.2,286047000.4,N
1504125015.0,286046998.5,N
1504125015.9,286046998.5,N
1504125035.8,286046997.4,N
1504125055.6,286046998.8,N
1504125075.4,286046996.8,N
1504125095.3,286046996.8,N
1504125115.1,286047000.9,N
1504125116.0,286047000.9,N
1504125135.8,286047002.4,N
1504125155.7,286046999.8,N
1504125175.5,286047005.8,N
1504125195.3,286047005.1,N
1504125215.1,286047003.3,N
1504125235.9,286047005.0,N
1504125255.7,286047006.3,N
1504125275.5,286047009.1,N
1504125295.4,286047008.6,N
1504125315.2,286047009.2,N
1504125335.0,286047009.1,N
1504125335.9,286047009.1,N
1504125355.8,286047007.3,N
1504125375.6,286047006.7,N
1504125395.4,286047010.8,N
1504125415.3,286047007.5,N
1504125435.1,286047004.5,N
1504125436.0,286047004.5,N
1504125455.8,286047008.9,N
1504125475.7,286047010.4,N
1504125495.5,286047009.5,N
1504125515.3,286047010.2,N
1504125535.2,286047012.4,N
1504125555.9,286047010.1,N
1504125575.7,286047007.7,N
1504125595.5,286047010.1,N
1504125615.4,286047010.1,N
1504125635.2,286047015.6,P
1504125655.0,286047009.5,N
1504125656.0,286047009.5,N
1504125675.8,286047009.6,N
1504125695.6,286047004.8,N
1504125715.4,286047001.3,N
1504125735.3,286047001.6,N
1504125755.1,286047003.7,N
1504125775.8,286047003.4,N
1504125795.7,286047003.3,N
1504125815.5,286047003.8,N
1504125835.3,286047003.9,N
1504125855.2,286047007.3,N
1504125875.9,286047008.7,N
1504125895.7,286047006.5,N
1504125915.6,286047006.0,N
1504125935.4,286047003.3,N
1504125955.2,286047001.4,N
1504125975.1,286047003.1,N
1504125976.0,286047003.1,N
1504125995.8,286047007.5,N
1504126015.6,286047008.1,N
1504126035.5,286047008.9,N
1504126055.3,286047005.2,N
1504126075.1,286047005.3,N
1504126095.8,286047003.1,N
1504126115.7,286047003.7,N
1504126135.5,286047005.9,N
1504126155.3,286047003.2,N
1504126175.2,286047002.7,N
1504126195.9,286047000.0,N
1504126215.7,286047001.8,N
1504126235.6,286047003.5,N
1504126255.4,286047005.1,N
1504126275.2,286047005.2,N
1504126295.1,286047007.2,P
1504126296.0,286047007.2,P
1504126315.8,286047000.6,N
1504126335.6,286047000.8,N
1504126355.5,286046998.5,N
1504126375.3,286047000.2,N
1504126395.1,286046998.6,N
1504126415.9,286047000.8,N
1504126435.7,286047000.7,N
1504126455.5,286047002.8,N
1504126475.4,286046998.2,N
1504126495.2,286047000.9,N
1504126515.0,286046998.9,N
1504126515.9,286046998.9,N
1504126535.8,286046997.1,N
1504126555.6,286046999.5,N
1504126575.4,286046997.4,N
1504126595.2,286046995.5,N
1504126615.1,286046994.6,N
1504126616.0,286046994.6,N
1504126635.8,286046992.4,N
1504126655.6,286046996.3,N
1504126675.5,286046994.1,N
1504126695.3,286046995.5,N
1504126715.1,286046996.8,N
1504126735.9,286046999.0,N
1504126755.7,286046997.3,N
1504126775.5,286046997.8,N
1504126795.4,286046997.2,N
